Dean International
Flight School

Career Spotlight

Mika

Mika

Congratulations to Mika from Khazakstan. She recently sent us this photo of her flying an Airbus airliner.

More...
Mika's Success Story
close

Congratulations to Mika from Khazakstan. She recently sent us this photo of her flying an Airbus airliner.

Mario

Mario

My dreams could not have been realized if I wouldn't have been part of the Dean International family.

More...
Mario's Success Story
close

"My dreams could not have been realized if I wouldn't have been part of the Dean International family. Thank you Robert, thanks to all my co-workers, and thanks to all of my students!"

Fernando

Fernando

I am now working as a First Officer at TACA and am enjoying every moment of it.

More...
Fernando's Success Story
close

"Will never forget my time of flight training at Dean International. I am now working as a First Officer at TACA and am enjoying every moment of it."

Alvaro

Alvaro

Because of the flight time I was able to built while instructing, I got the experience needed to apply to an airline in Colombia.

More...
Alvaro's Success Story
close

Dean alumnus Alvaro Londoño currently flies with Tampa Cargo. He says of his experience at Dean: "I want to take this opportunity to thank you for giving me the chance to build my experience and expand my knowledge in Dean International. Because of the flight time I was able to built flight instructing, I got the experience needed to apply to an airline in Colombia."

Ralph

Ralph

Every Aruban student of Dean International has made it into Tiara Air Aruba, that is very nice.

More...
Ralph's Success Story
close

"Next to me is my Co-Pilot, Elison. This picture was taken on our first flight together, which was almost exactly 5 years after I finished at Dean International. [...] Every Aruban student of Dean International has made it into Tiara Air Aruba. [...] The future looks bright here in Aruba."

Rohaan

Rohaan

The [..] staff will all work diligently to help you finish your certificates as safely and efficiently as possible.

More...
Rohaan's Success Story
close

After receiving very hard times from other flight schools [...], I came to Dean International where Robert Dean personally sat down with me and gave me a financial and chronological look into how much remained to finish my private pilot certificate. Through his hard efforts as an instructor and mentor, I was able to finish my private pilot certificate within one week.

Welcome to Dean International

In over two decades, Dean International has educated over 7,000 pilots from all over the world, including over 1,000 students from India alone. By offering a great training experience, a friendly service staff, an ample variety of aircraft, and by improving constantly, we have become one of the largest, most prestigious FAA 141-approved flight schools in North America. Located in Miami, Florida, USA, our flight school offers an ideal location for year-round, "learn to fly" weather, flight training. Dean International is not only well-equipped to provide services to professional trainees but also caters to General Aviation renters. Visit or contact our headquarters at Kendall-Tamiami Executive Airport located in Miami, FL today to learn more about us, or simply read more about our programs if you are an international student interested in joining our school.

Local Airport Information
TAF FOR KTMB (Issued: Tue, May 26th 2015 12:36 PM UTC)
TAF KTMB 261135Z 2612/2712 12012KT P6SM VCSH SCT025 BKN040
      FM261600 11015G25KT P6SM SCT025 BKN040
      FM270300 09009KT P6SM SCT025
     
METAR FOR KTMB (Issued: Tue, May 26th 2015 12:53 PM UTC):
KTMB 261253Z AUTO 12013KT 10SM CLR 28/23 A3018 RMK AO2 SLP217 T02780228

This weather information is provided by the National Weather Service.
It is automatically refreshed every three minutes.
TAF FOR KHST (Issued: Tue, May 26th 2015 8:09 AM UTC)
TAF KHST 2608/2714 10012KT 9999 SCT020 QNH3010INS
      BECMG 2612/2613 08012G18KT 9999 SCT050 QNH3007INS
      BECMG 2702/2703 07012KT 9999 FEW028 QNH3012INS TX30/2617Z TN25/2710Z
     
METAR FOR KHST (Issued: Tue, May 26th 2015 12:58 PM UTC):
KHST 261258Z AUTO 08012KT 10SM CLR 29/22 A3017 RMK AO2 SLP220 T02860216

This weather information is provided by the National Weather Service.
It is automatically refreshed every three minutes.
TAF FOR KOPF (Issued: Tue, May 26th 2015 12:36 PM UTC)
TAF KOPF 261135Z 2612/2712 11012KT P6SM VCSH SCT030 BKN050
      FM261600 11014G24KT P6SM SCT025 BKN040
      FM270300 09010KT P6SM SCT025
     
METAR FOR KOPF (Issued: Tue, May 26th 2015 12:53 PM UTC):
KOPF 261253Z 12014G19KT 10SM CLR 28/22 A3018 RMK AO2 SLP221 T02830217

This weather information is provided by the National Weather Service.
It is automatically refreshed every three minutes.
TAF FOR KMIA (Issued: Tue, May 26th 2015 12:39 PM UTC)
TAF KMIA 261135Z 2612/2712 10012KT P6SM VCSH SCT025 BKN040 BKN250
      FM261600 11013G23KT P6SM SCT025 BKN040
      FM270300 09010KT P6SM SCT025
     
METAR FOR KMIA (Issued: Tue, May 26th 2015 12:53 PM UTC):
KMIA 261253Z 11017KT 10SM SCT029 BKN300 29/21 A3018 RMK AO2 SLP219 T02890206

This weather information is provided by the National Weather Service.
It is automatically refreshed every three minutes.
Design by Ariel Llizo
© Dean International Inc. 2012